Погода в Преображенке

Погода в Преображенке : погода сейчас, прогноз погоды и архив. Всё, что Вы хотите узнать о погоде в Преображенке!

Хотите узнать прогноз погоды в Преображенке? Тогда Вам сюда: Погода в Преображенке

Поиск расширенной информации на нашем сайте:

Другие новости

Новости СМИ2

Главная страница сайта

Новости сайта

03.07.2017

Напоминаем, что на нашем специализированном сайте Метеоцентр.Азия вы можете получить высокодетализированные автоматические прогнозы погоды по пунктам России, СНГ и мира в авиационном формате (включающие направление и скорость ветра, видимость, явления погоды, количество и форму облачности, нижнюю и верхнюю границу облачности).


Погода в Преображенке - сегодня

Время (UTC), дата Ветер
(°,м/с) 
Видим.   Явления Облачность Т
(°С)
Тd
(°С)
f(%) Тe
(°С)
Pmin
(гПа)
dP
(гПа)
Po
(мм)
O2
(г/м3)
Тmin Tmax R s Состояние
почвы
09 20.08.17 050 (СВ) 20000 м  дым  5/0 верхняя 
[Ci fib]
+23.3 +3 26 +23  1005.2  -1.9  729  270           
15 20.08.17 320 (СЗ) н/о    4/0 средняя, верхняя 
[Ac lent|Ci fib]
+8.7 +5.4 80 +10  1005.5  -0.8  728  283           
18 20.08.17 тихо ()   н/о    3/0 верхняя 
[Ci fib]
+7.5 +4.5 81 +8  1004.1  -1.4  727  284           
21 20.08.17 360 (С) 10 км  дымка  8/0 верхняя 
[Ci fib]
+5 +3.3 89 +6  1003.9  -0.6  726  287           
00 21.08.17 320 (СЗ) 4000 м  дымка  9/0 верхняя 
[Ci fib]
+8.4 +6.2 86 +8  1002.7  -0.7  726  283  +4.4        сухая 
03 21.08.17 340 (С) 20000 м  дым  9/0 верхняя 
[Cc]
+14.6 +7.5 62 +14  1001.6  -0.3  726  276           
06 21.08.17 340 (С) 20000 м  дым  9/1 600 м кучево-дожд., верхняя 
[Cb cap|Cs]
+19.6 +7.5 45 +20  1001.3  0.2  726  272           
09 21.08.17 050 (СВ) 20000 м  дым  9/9 600 м кучево-дожд. 
[Cb cap]
+18.8 +8.4 51 +19  1001.9  0.5  726  272           
12 21.08.17 020 (С) 10 км  дым  9/9 600 м кучево-дожд. 
[Cb cap]
+16.2 +8.6 61 +18  1004.2  1.9  728  275    +21.8       
15 21.08.17 020 (С) н/о    9/6 600 м кучево-дожд., верхняя 
[Cb cap|Cs]
+13.1 +9.4 78 +15  1006  1.4  729  278           
18 21.08.17 тихо ()   н/о  местами туман поземный  9/0 верхняя 
[Cs]
+9.6 +9.4 99 +11  1006.9  0.5  729  282           
21 21.08.17 тихо ()   4000 м  дымка  8/0 верхняя 
[Ci fib]
+7.5 +6.4 93 +8  1008.4  1.2  730  285           
00 22.08.17 320 (СЗ) 10 км  дым  9/9 600 м 
[Sc]
+12.5 +5.9 64 +13  1009.3  1.5  731  281  +6.1        сухая 
03 22.08.17 320 (СЗ) 10 км  дым  4/0 верхняя 
[Ci fib]
+16.4 +4 44 +16  1009.9  0.9  732  277           
06 22.08.17 320 (СЗ) 5{10}  20000 м  дым  3/3 600 м верхняя 
[Cu hum|Ci fib]
+18.8 +1.9 32 +19  1009.1  -0.4  731  275           
15 22.08.17 180 (Ю) н/о  туман поземный  9/3 600 м верхняя 
[Sc|Cs]
+10 +6.1 77 +11  1008.9  -0.4  730  283           
18 22.08.17 160 (Ю) н/о  дымка  9/0 верхняя 
[Cs]
+9.8 +5.7 76 +11  1008.4  -0.5  730  283           
21 22.08.17 160 (Ю) 4000 м  дымка  8/0 верхняя 
[Ci fib]
+7.2 +4.4 82 +8  1008  -0.7  729  286           
00 23.08.17 140 (ЮВ) 4000 м  дымка  8/0 верхняя 
[Ci fib]
+8.6 +5.7 82 +10  1007.7  -0.1  729  284  +6.7        сухая 
03 23.08.17 230 (ЮЗ) 4000 м  дым  9/9 600 м кучево-дожд. 
[Cb cap]
+13.8 +6.3 61 +14  1006.3  -0.7  729  278           
06 23.08.17 270 (З) 10 км  слаб. ливневой дождь  10/10 600 м кучево-дожд. 
[Cb cap]
+14.4 +7.1 61 +14  1006.2  0.1  729  278           
09 23.08.17 340 (С) 20000 м  дым{ливн. осадки}  10/10 600 м кучево-дожд. 
[Cb cap]
+13.4 +8.6 73 +14  1006.4  729  278           
12 23.08.17 тихо ()   20000 м  дым{ливн. осадки}  9/5 600 м кучево-дожд., средняя, верхняя 
[Cb cap|Ac trans|Cs]
+11.8 +9.6 86 +13  1007  0.4  729  280    +14.5  0.0     
15 23.08.17 тихо ()   н/о  в посл. час ливневой дождь  10/10 600 м кучево-дожд. 
[Cb cap]
+10.4 +9.6 95 +12  1008.1  0.9  730  282           
18 23.08.17 тихо ()   н/о  дымка{ливн. осадки}  4/1 600 м кучево-дожд., верхняя 
[Cb cap|Ci fib]
+8.6 +8.2 97 +9  1008.5  0.1  730  284           
Время (UTC), дата Ветер
(°,м/с) 
Видим.   Явления Облачность Т
(°С)
Тd
(°С)
f(%) Тe
(°С)
Pmin
(гПа)
dP
(гПа)
Po
(мм)
O2
(г/м3)
Тmin Tmax R s Состояние
почвы

Для получения пояснительной информации подведите курсор к названию столбца.

ПОГОДА в Преображенке - архив

Всё, что Вы хотите узнать о погоде в Преображенке - удобно и подробно!

Выберите нужную дату (начиная с 1 января 2015* года) и нажмите кнопку "Найти".
Будут отображены архивные сводки погоды по пункту Преображенка, начиная с указанной даты.


Отображать данные в формате CSV (для использования в таблицах Excel)


Внимание! Наш архив погоды предназначен исключительно для личного некоммерческого использования в познавательных целях. Если Вам необходимы официальные справки о состоянии погоды (для производственных, юридических, коммерческих и т.п. целей), обращайтесь в органы Росгидромета.

*Примечание: данная дата относится к архиву по метеостанциям СССР (Россия, СНГ, Балтия).
Архив по метеостанциям Зарубежной Европы и Азии (кроме Китая) хранится 10 дней, по другим регионам земного шара (Китай, Африка, Америка, Австралия, Океания) - 1 день.

Преображенка - район местоположения метеостанции


Название, широта, долгота, высота метеостанции:
Преображенка 60.1°ш. 108°д. 292 м над ур. моря [Российская Федерация]

Дополнительная информация

В oтличие oт бoльшинства пoгoдных сайтoв мы публикуем пoдрoбную метеoинфoрмацию в детальнoм прoфессиoнальнoм фoрмате.

Характеристики температуры и влажнoсти вoздуха измеряются на высoте 2 м в тени вдали oт зданий и деревьев.
Скoрoсть ветра измеряется на высoте 10 м (на урoвне рoста челoвека скoрoсть ветра ниже в 1.5-2 раза). Если метеoстанция нахoдится в гoрoде или в лесу, тo скoрoсть ветра занижена на 2-4 м/с пo сравнению с oткрытым местoм. Скoрoсть ветра над акватoриями крупных рек и oзёр, а также на вершинах хoлмoв на 2-5 м/с выше, чем в oбычных услoвиях.
Атмoсфернoе давление в разных тoчках местнoсти мoжет значительнo oтличаться oт давления на метеoстанции, в зависимoсти oт услoвий рельефа (при пoдъёме на 10 м давление пoнижается примернo на 1 мм рт.ст.).